GW2352 Weather Reports


Display with metric or nautical units.
time (UTC)temp
F
wind
direction
speed
MPH
gust
MPH
rain 1hr
in
rain 24hr
in
rain mn
in
humidity
%
barometer
mb
20260507110601 77 28 1.0 1.0 0.00 0.00 0.00 59 1016.2
20260507110057 77 78 1.0 1.0 0.00 0.00 0.00 59 1016.3
20260507105554 78 57 1.0 2.0 0.00 0.00 0.00 58 1016.5
20260507105050 78 359 5.0 7.0 0.00 0.00 0.00 58 1016.0
20260507104548 78 347 2.0 3.0 0.00 0.00 0.00 59 1016.4
20260507104044 77 180 3.0 3.0 0.00 0.00 0.00 60 1016.3
20260507103540 77 322 3.0 3.0 0.00 0.00 0.00 60 1016.4
20260507103037 76 328 3.0 5.0 0.00 0.00 0.00 60 1016.5
20260507102533 75 357 4.0 6.0 0.00 0.00 0.00 62 1016.4
20260507102031 76 286 4.0 6.0 0.00 0.00 0.00 60 1016.5
20260507101525 77 296 5.0 6.0 0.00 0.00 0.00 60 1016.7
20260507101022 76 142 5.0 8.0 0.00 0.00 0.00 61 1016.6
20260507100520 76 190 3.0 3.0 0.00 0.00 0.00 58 1016.6
20260507100017 76 186 3.0 5.0 0.00 0.00 0.00 59 1016.6
20260507095515 76 213 3.0 3.0 0.00 0.00 0.00 57 1016.5
20260507095011 77 147 6.0 7.0 0.00 0.00 0.00 54 1016.6
20260507094508 76 156 1.0 1.0 0.00 0.00 0.00 53 1016.6
20260507094005 76 269 2.0 2.0 0.00 0.00 0.00 53 1016.8
20260507093502 75 177 4.0 6.0 0.00 0.00 0.00 55 1017.2
20260507093001 75 145 0.0 0.0 0.00 0.00 0.00 55 1017.3
20260507092456 75 167 1.0 1.0 0.00 0.00 0.00 54 1017.2
20260507091953 73 197 3.0 3.0 0.00 0.00 0.00 55 1017.4
20260507091449 74 196 2.0 3.0 0.00 0.00 0.00 55 1017.6
20260507090945 74 164 1.0 1.0 0.00 0.00 0.00 57 1017.4
20260507090442 73 294 2.0 3.0 0.00 0.00 0.00 56 1017.5
20260507085938 74 142 2.0 3.0 0.00 0.00 0.00 56 1017.6
20260507085435 74 171 3.0 3.0 0.00 0.00 0.00 56 1017.9
20260507084932 73 144 0.0 0.0 0.00 0.00 0.00 59 1017.9
20260507084429 73 159 0.0 1.0 0.00 0.00 0.00 61 1017.7
20260507083926 72 160 4.0 6.0 0.00 0.00 0.00 60 1018.0
20260507083423 72 135 3.0 5.0 0.00 0.00 0.00 61 1017.8
20260507082919 71 145 2.0 2.0 0.00 0.00 0.00 61 1017.8
20260507082415 71 348 2.0 3.0 0.00 0.00 0.00 62 1017.9
20260507081912 71 170 3.0 5.0 0.00 0.00 0.00 63 1017.9
20260507081408 70 156 2.0 2.0 0.00 0.00 0.00 64 1018.0
20260507080905 70 171 1.0 2.0 0.00 0.00 0.00 65 1018.1
20260507080401 71 208 5.0 7.0 0.00 0.00 0.00 65 1018.2
20260507075857 70 178 1.0 1.0 0.00 0.00 0.00 66 1018.2
20260507075353 71 168 1.0 2.0 0.00 0.00 0.00 66 1018.4
20260507074849 70 155 1.0 2.0 0.00 0.00 0.00 66 1018.1
20260507074347 69 165 3.0 3.0 0.00 0.00 0.00 67 1018.1
20260507073844 68 168 2.0 2.0 0.00 0.00 0.00 67 1018.1
20260507073340 68 169 0.0 1.0 0.00 0.00 0.00 68 1018.0
20260507072838 68 198 1.0 2.0 0.00 0.00 0.00 68 1018.1
20260507072335 68 142 1.0 1.0 0.00 0.00 0.00 68 1018.0
20260507071832 67 175 1.0 2.0 0.00 0.00 0.00 70 1018.0
20260507071329 67 153 2.0 2.0 0.00 0.00 0.00 69 1018.2
20260507070825 67 135 3.0 5.0 0.00 0.00 0.00 70 1018.2
20260507070323 66 181 3.0 3.0 0.00 0.00 0.00 70 1018.2
20260507065820 66 186 3.0 5.0 0.00 0.00 0.00 71 1018.3
20260507065316 65 149 4.0 5.0 0.00 0.00 0.00 72 1018.3
20260507064814 65 179 2.0 2.0 0.00 0.00 0.00 70 1018.2
20260507064312 65 180 2.0 3.0 0.00 0.00 0.00 72 1018.3
20260507063810 65 157 3.0 3.0 0.00 0.00 0.00 71 1018.3
20260507063306 64 141 1.0 1.0 0.00 0.00 0.00 73 1018.4
20260507062803 64 130 1.0 2.0 0.00 0.00 0.00 73 1018.4
20260507062300 64 155 1.0 1.0 0.00 0.00 0.00 74 1018.0
20260507061758 63 158 0.0 1.0 0.00 0.00 0.00 75 1018.2
20260507061256 63 137 0.0 0.0 0.00 0.00 0.00 74 1018.3
20260507060754 63 154 1.0 1.0 0.00 0.00 0.00 75 1018.2
20260507060250 62 139 0.0 0.0 0.00 0.00 0.00 76 1018.1
20260507055747 62 139 0.0 0.0 0.00 0.00 0.00 75 1018.4
20260507055242 62 141 0.0 0.0 0.00 0.00 0.00 76 1018.1
20260507054738 61 141 1.0 1.0 0.00 0.00 0.00 77 1018.4
20260507054235 60 139 0.0 0.0 0.00 0.00 0.00 76 1018.3
20260507053733 60 151 0.0 1.0 0.00 0.00 0.00 77 1018.3
20260507053230 60 154 1.0 1.0 0.00 0.00 0.00 77 1018.1
20260507052729 59 137 0.0 0.0 0.00 0.00 0.00 78 1018.3
20260507052225 59 138 0.0 1.0 0.00 0.00 0.00 78 1018.5
20260507051723 59 152 1.0 1.0 0.00 0.00 0.00 80 1018.4
20260507051220 58 125 0.0 1.0 0.00 0.00 0.00 80 1018.0
20260507050716 58 137 0.0 0.0 0.00 0.00 0.00 82 1018.0
20260507050214 58 122 0.0 0.0 0.00 0.00 0.00 83 1018.3
20260507045710 57 126 0.0 1.0 0.00 0.00 0.00 83 1018.0
20260507045206 57 123 0.0 0.0 0.00 0.00 0.00 84 1018.1
20260507044704 57 131 0.0 0.0 0.00 0.00 0.00 84 1018.2
20260507044200 57 130 0.0 0.0 0.00 0.00 0.00 84 1018.1
20260507043656 56 126 1.0 2.0 0.00 0.00 0.00 84 1018.1
20260507043153 56 133 1.0 2.0 0.00 0.00 0.00 85 1018.0
20260507042650 55 133 0.0 0.0 0.00 0.00 0.00 85 1018.0
20260507042144 55 133 0.0 0.0 0.00 0.00 0.00 85 1017.9
20260507041642 55 132 0.0 1.0 0.00 0.00 0.00 86 1018.0
20260507041138 54 135 0.0 0.0 0.00 0.00 0.00 87 1018.0
20260507040636 54 130 1.0 1.0 0.00 0.00 0.00 87 1018.1
20260507040132 54 129 0.0 0.0 0.00 0.00 0.00 89 1017.8
20260507035628 53 134 0.0 0.0 0.00 0.00 0.00 89 1017.8
20260507035124 53 134 0.0 0.0 0.00 0.00 0.00 89 1017.8
20260507034621 53 135 0.0 0.0 0.00 0.00 0.00 89 1017.8
20260507034118 53 139 0.0 0.0 0.00 0.00 0.00 89 1017.7
20260507033617 53 134 0.0 0.0 0.00 0.00 0.00 89 1017.5
20260507033114 53 132 0.0 0.0 0.00 0.00 0.00 89 1017.6
20260507032611 53 128 0.0 0.0 0.00 0.00 0.00 89 1017.6
20260507032107 53 132 0.0 0.0 0.00 0.00 0.00 90 1017.5
20260507031603 53 129 0.0 0.0 0.00 0.00 0.00 90 1017.4
20260507031100 52 138 0.0 0.0 0.00 0.00 0.00 90 1017.4
20260507030557 52 133 0.0 0.0 0.00 0.00 0.00 90 1017.4
20260507030055 53 153 0.0 0.0 0.00 0.00 0.00 90 1017.4
20260507025552 52 139 0.0 0.0 0.00 0.00 0.00 89 1017.4
20260507025049 53 133 0.0 0.0 0.00 0.00 0.00 89 1017.4
20260507024547 53 131 0.0 0.0 0.00 0.00 0.00 89 1017.1
20260507024043 53 133 0.0 0.0 0.00 0.00 0.00 89 1017.3
20260507023539 52 135 0.0 0.0 0.00 0.00 0.00 89 1017.1
20260507023037 52 133 0.0 0.0 0.00 0.00 0.00 89 1017.2
20260507022533 52 137 0.0 0.0 0.00 0.00 0.00 88 1016.9
20260507022029 53 137 0.0 0.0 0.00 0.00 0.00 88 1017.1
20260507021525 53 137 0.0 0.0 0.00 0.00 0.00 88 1017.1
20260507021022 53 135 0.0 0.0 0.00 0.00 0.00 88 1017.1
20260507020520 53 133 0.0 0.0 0.00 0.00 0.00 88 1017.2
20260507020016 53 134 0.0 0.0 0.00 0.00 0.00 88 1017.1
20260507015514 53 133 0.0 0.0 0.00 0.00 0.00 88 1017.3
20260507015011 53 134 0.0 0.0 0.00 0.00 0.00 89 1016.8
20260507014508 53 133 0.0 0.0 0.00 0.00 0.00 89 1016.8
20260507014004 53 133 0.0 0.0 0.00 0.00 0.00 89 1017.1
20260507013500 53 137 0.0 0.0 0.00 0.00 0.00 89 1017.2
20260507012958 53 137 0.0 0.0 0.00 0.00 0.00 89 1016.9
20260507012455 53 137 0.0 0.0 0.00 0.00 0.00 89 1017.1
20260507011951 53 135 0.0 0.0 0.00 0.00 0.00 89 1017.3
20260507011448 53 135 0.0 0.0 0.00 0.00 0.00 89 1017.1
20260507010943 53 134 0.0 0.0 0.00 0.00 0.00 89 1017.2
20260507010438 53 137 0.0 0.0 0.00 0.00 0.00 89 1017.2
20260507005935 53 137 0.0 0.0 0.00 0.00 0.00 89 1017.1
20260507005433 53 137 0.0 0.0 0.00 0.00 0.00 89 1017.2
20260507004929 53 137 0.0 0.0 0.00 0.00 0.00 89 1017.1
20260507004426 53 131 0.0 0.0 0.00 0.00 0.00 89 1016.8
20260507003923 53 131 0.0 0.0 0.00 0.00 0.00 89 1017.1
20260507003418 53 133 0.0 0.0 0.00 0.00 0.00 89 1017.1
20260507002914 53 129 0.0 0.0 0.00 0.00 0.00 89 1016.9
20260507002410 53 133 0.0 0.0 0.00 0.00 0.00 89 1017.1
20260507001907 53 133 0.0 0.0 0.00 0.00 0.00 89 1016.8
20260507001404 53 137 0.0 0.0 0.00 0.00 0.00 89 1017.2
20260507000856 53 133 0.0 0.0 0.00 0.00 0.00 89 1017.1
20260507000351 53 133 0.0 0.0 0.00 0.00 0.00 89 1017.4
20260506235847 53 133 0.0 0.0 0.00 0.00 0.00 89 1017.3
20260506235344 53 133 0.0 0.0 0.00 0.00 0.00 89 1017.2
20260506234840 53 133 0.0 0.0 0.00 0.00 0.00 88 1017.1
20260506234338 53 133 0.0 0.0 0.00 0.00 0.00 88 1017.3
20260506233835 54 133 0.0 0.0 0.00 0.00 0.00 88 1016.9
20260506233331 54 135 0.0 0.0 0.00 0.00 0.00 88 1017.2
20260506232828 53 133 0.0 0.0 0.00 0.00 0.00 87 1017.1
20260506232324 54 133 0.0 0.0 0.00 0.00 0.00 87 1017.2
20260506231820 54 133 0.0 0.0 0.00 0.00 0.00 87 1017.3
20260506231318 54 134 0.0 0.0 0.00 0.00 0.00 87 1017.1
20260506230815 54 129 0.0 0.0 0.00 0.00 0.00 87 1017.1
20260506230312 54 128 0.0 0.0 0.00 0.00 0.00 87 1017.2
20260506225808 54 135 0.0 0.0 0.00 0.00 0.00 87 1017.1
20260506225306 54 137 0.0 0.0 0.00 0.00 0.00 86 1017.2
20260506224802 54 137 0.0 0.0 0.00 0.00 0.00 86 1017.2
20260506224259 55 135 0.0 0.0 0.00 0.00 0.00 86 1017.2
20260506223755 55 128 0.0 0.0 0.00 0.00 0.00 86 1016.8
20260506223251 55 134 0.0 0.0 0.00 0.00 0.00 86 1016.9
20260506222748 55 133 0.0 0.0 0.00 0.00 0.00 85 1017.4
20260506222244 55 133 0.0 0.0 0.00 0.00 0.00 85 1017.4
20260506221742 55 139 0.0 0.0 0.00 0.00 0.00 84 1017.6
20260506221240 55 139 0.0 0.0 0.00 0.00 0.00 84 1017.3
20260506220731 56 131 0.0 0.0 0.00 0.00 0.00 84 1017.4
20260506220226 55 137 0.0 0.0 0.00 0.00 0.00 84 1017.5
20260506215723 55 137 0.0 0.0 0.00 0.00 0.00 84 1017.4
20260506215219 55 139 0.0 0.0 0.00 0.00 0.00 84 1017.7
20260506214715 56 134 0.0 0.0 0.00 0.00 0.00 83 1017.4
20260506214213 56 208 0.0 0.0 0.00 0.00 0.00 83 1017.5
20260506213711 56 134 0.0 0.0 0.00 0.00 0.00 82 1017.8
20260506213208 56 139 0.0 0.0 0.00 0.00 0.00 81 1017.8
20260506212705 57 135 0.0 0.0 0.00 0.00 0.00 81 1017.5
20260506212200 57 137 0.0 0.0 0.00 0.00 0.00 80 1017.5
20260506211655 57 173 0.0 0.0 0.00 0.00 0.00 80 1017.7
20260506211152 57 197 0.0 0.0 0.00 0.00 0.00 80 1017.8
20260506210649 57 154 0.0 0.0 0.00 0.00 0.00 80 1017.7
20260506210146 57 114 0.0 1.0 0.00 0.00 0.00 80 1017.5
20260506205643 57 137 0.0 0.0 0.00 0.00 0.00 80 1017.7
20260506205138 57 208 1.0 2.0 0.00 0.00 0.00 80 1017.6
20260506204636 57 172 0.0 0.0 0.00 0.00 0.00 80 1017.7
20260506204132 57 139 0.0 1.0 0.00 0.00 0.00 80 1017.8
20260506203631 57 115 0.0 0.0 0.00 0.00 0.00 80 1017.6
20260506203127 57 133 0.0 0.0 0.00 0.00 0.00 80 1017.9
20260506202625 57 139 0.0 1.0 0.00 0.00 0.00 80 1017.8
20260506202121 57 139 0.0 0.0 0.00 0.00 0.00 80 1017.7
20260506201619 57 129 0.0 0.0 0.00 0.00 0.00 80 1017.8
20260506201115 57 137 0.0 0.0 0.00 0.00 0.00 80 1017.7
20260506200611 57 178 1.0 1.0 0.00 0.00 0.00 80 1018.1
20260506200108 57 142 0.0 0.0 0.00 0.00 0.00 80 1017.7
20260506195605 58 140 0.0 0.0 0.00 0.00 0.00 80 1017.8
20260506195101 58 139 0.0 0.0 0.00 0.00 0.00 80 1017.7
20260506194559 58 147 0.0 1.0 0.00 0.00 0.00 80 1017.6
20260506194055 58 163 0.0 0.0 0.00 0.00 0.00 80 1017.8
20260506193553 58 125 0.0 1.0 0.00 0.00 0.00 80 1017.9
20260506193050 58 151 0.0 1.0 0.00 0.00 0.00 81 1017.9
20260506192546 58 184 0.0 0.0 0.00 0.00 0.00 81 1018.1
20260506192042 58 139 0.0 0.0 0.00 0.00 0.00 81 1018.2
20260506191539 58 150 1.0 1.0 0.00 0.00 0.00 81 1017.9
20260506191035 58 121 0.0 1.0 0.00 0.00 0.00 80 1017.9
20260506190532 58 129 0.0 1.0 0.00 0.00 0.00 80 1017.7
20260506190029 58 308 0.0 1.0 0.00 0.00 0.00 80 1017.6
20260506185527 59 118 1.0 2.0 0.00 0.00 0.00 80 1017.9
20260506185023 59 278 2.0 3.0 0.00 0.00 0.00 80 1018.0
20260506184520 58 191 1.0 1.0 0.00 0.00 0.00 80 1017.7
20260506184018 59 29 0.0 1.0 0.00 0.00 0.00 81 1017.7
20260506183513 59 71 1.0 1.0 0.00 0.00 0.00 81 1017.7
20260506183010 59 156 1.0 1.0 0.00 0.00 0.00 81 1017.5
20260506182508 59 102 0.0 0.0 0.00 0.00 0.00 81 1017.7
20260506182004 59 13 0.0 1.0 0.00 0.00 0.00 80 1017.7
20260506181502 59 58 1.0 2.0 0.00 0.00 0.00 80 1017.5
20260506180959 59 255 1.0 2.0 0.00 0.00 0.00 80 1017.5
20260506180455 59 174 0.0 0.0 0.00 0.00 0.00 80 1017.3
20260506175947 59 130 1.0 1.0 0.00 0.00 0.00 79 1017.5
20260506175444 59 80 0.0 0.0 0.00 0.00 0.00 79 1017.3
20260506174940 59 237 0.0 0.0 0.00 0.00 0.00 79 1017.4
20260506174438 59 124 0.0 1.0 0.00 0.00 0.00 79 1017.3
20260506173934 59 135 0.0 0.0 0.00 0.00 0.00 79 1017.3
20260506173432 60 145 0.0 1.0 0.00 0.00 0.00 78 1017.2
20260506172929 59 6 1.0 2.0 0.00 0.00 0.00 79 1017.1
20260506172426 59 143 1.0 1.0 0.00 0.00 0.00 78 1017.3
20260506171922 60 133 2.0 2.0 0.00 0.00 0.00 77 1016.9
20260506171420 60 217 1.0 1.0 0.00 0.00 0.00 77 1017.1
20260506170917 60 139 0.0 0.0 0.00 0.00 0.00 76 1017.2
20260506170413 60 308 1.0 1.0 0.00 0.00 0.00 76 1017.1
20260506165907 60 235 1.0 1.0 0.00 0.00 0.00 75 1016.9
20260506165405 60 191 1.0 1.0 0.00 0.00 0.00 75 1016.9
20260506164901 60 274 1.0 2.0 0.00 0.00 0.00 75 1017.2
20260506164357 60 194 2.0 2.0 0.00 0.00 0.00 74 1016.9
20260506163855 61 185 1.0 1.0 0.00 0.00 0.00 73 1016.9
20260506163350 61 319 2.0 3.0 0.00 0.00 0.00 72 1016.8
20260506162845 61 137 0.0 0.0 0.00 0.00 0.00 71 1016.7
20260506162343 62 311 2.0 3.0 0.00 0.00 0.00 71 1016.8
20260506161840 62 292 3.0 5.0 0.00 0.00 0.00 70 1016.7
20260506161337 62 14 1.0 2.0 0.00 0.00 0.00 70 1016.4
20260506160836 63 304 1.0 2.0 0.00 0.00 0.00 69 1016.8
20260506160332 63 300 3.0 5.0 0.00 0.00 0.00 68 1016.6
20260506155831 64 304 3.0 6.0 0.00 0.00 0.00 67 1016.8
20260506155327 64 270 2.0 3.0 0.00 0.00 0.00 66 1016.5
20260506153444 65 146 1.0 1.0 0.00 0.00 0.00 65 1016.4
20260506152942 66 107 2.0 3.0 0.00 0.00 0.00 64 1016.3
20260506152438 66 140 4.0 6.0 0.00 0.00 0.00 63 1016.4
20260506151937 66 264 0.0 1.0 0.00 0.00 0.00 63 1016.3
20260506151434 66 250 3.0 6.0 0.00 0.00 0.00 62 1016.4
20260506150932 67 300 2.0 5.0 0.00 0.00 0.00 61 1016.3
20260506150427 67 165 0.0 0.0 0.00 0.00 0.00 61 1016.2
20260506145925 67 127 3.0 5.0 0.00 0.00 0.00 61 1016.5
20260506145421 66 107 1.0 2.0 0.00 0.00 0.00 62 1016.3
20260506144918 68 36 2.0 5.0 0.00 0.00 0.00 60 1016.4
20260506144414 68 166 2.0 3.0 0.00 0.00 0.00 60 1016.3
20260506143914 68 293 1.0 1.0 0.00 0.00 0.00 60 1016.3
20260506143410 68 177 3.0 5.0 0.00 0.00 0.00 60 1016.3
20260506142908 68 203 1.0 3.0 0.00 0.00 0.00 59 1016.2
20260506142406 68 290 5.0 6.0 0.00 0.00 0.00 56 1016.5
20260506141904 69 269 5.0 7.0 0.00 0.00 0.00 55 1016.2
20260506141401 68 274 4.0 6.0 0.00 0.00 0.00 55 1016.3
20260506140859 68 58 3.0 5.0 0.00 0.00 0.00 55 1016.1
20260506140356 69 166 2.0 3.0 0.00 0.00 0.00 56 1016.3
20260506135853 70 121 1.0 2.0 0.00 0.00 0.00 54 1016.3
20260506135350 69 270 1.0 2.0 0.00 0.00 0.00 55 1016.2
20260506134846 69 291 3.0 5.0 0.00 0.00 0.00 55 1016.5
20260506134342 70 319 1.0 1.0 0.00 0.00 0.00 55 1016.5
20260506133840 69 286 1.0 2.0 0.00 0.00 0.00 55 1016.4
20260506133336 71 143 2.0 3.0 0.00 0.00 0.00 54 1016.4
20260506132833 70 178 1.0 2.0 0.00 0.00 0.00 56 1016.5
20260506132330 70 229 2.0 3.0 0.00 0.00 0.00 57 1016.5
20260506131828 71 239 2.0 3.0 0.00 0.00 0.00 59 1016.5
20260506131324 69 199 1.0 1.0 0.00 0.00 0.00 59 1016.5
20260506130822 69 193 3.0 3.0 0.00 0.00 0.00 59 1016.5
20260506130318 69 216 2.0 3.0 0.00 0.00 0.00 60 1016.6
20260506125816 69 73 2.0 3.0 0.00 0.00 0.00 61 1016.5
20260506125314 69 283 4.0 6.0 0.00 0.00 0.00 59 1016.7
20260506124812 70 240 3.0 5.0 0.00 0.00 0.00 58 1016.9
20260506124309 70 155 0.0 1.0 0.00 0.00 0.00 60 1016.7
20260506123806 70 237 7.0 8.0 0.00 0.00 0.00 57 1017.1
20260506123300 70 207 4.0 6.0 0.00 0.00 0.00 58 1016.8
20260506122756 70 161 1.0 2.0 0.00 0.00 0.00 59 1016.7
20260506122253 69 164 1.0 2.0 0.00 0.00 0.00 61 1016.8
20260506121751 70 145 6.0 8.0 0.00 0.00 0.00 59 1016.7
20260506121248 71 204 5.0 7.0 0.00 0.00 0.00 58 1017.2
20260506120745 71 319 6.0 8.0 0.00 0.00 0.00 58 1017.2
20260506120243 69 169 3.0 5.0 0.00 0.00 0.00 61 1016.8
20260506115740 71 175 1.0 2.0 0.00 0.00 0.00 60 1017.2
20260506115238 69 174 5.0 6.0 0.00 0.00 0.00 58 1017.2
20260506114736 69 196 3.0 5.0 0.00 0.00 0.00 59 1017.1
20260506114233 69 180 3.0 3.0 0.00 0.00 0.00 59 1016.9
20260506113732 69 216 4.0 7.0 0.00 0.00 0.00 62 1016.9
20260506113229 69 194 5.0 6.0 0.00 0.00 0.00 59 1016.9
20260506112725 70 182 2.0 3.0 0.00 0.00 0.00 60 1017.2
20260506112223 69 251 5.0 6.0 0.00 0.00 0.00 58 1017.2
20260506111720 69 207 3.0 3.0 0.00 0.00 0.00 61 1017.3
20260506111218 69 158 3.0 5.0 0.00 0.00 0.00 59 1017.4